This demonstration page uses our WeatherBlox Daily Observations layout. Learn more.

Left ArrowRight Arrow

31.31129, -92.44514

Hourly Observations for August 2, 2022

Temp ( °F °C ) Dew Point ( °F °C ) Humidity (%) Winds ( mph kmh ) Pressure ( in mb ) Visibility ( mi km ) Precip ( " mm )
12:53 am 00:53 Clear 78 25.6 74 23.3 87 87 SSE 5 7 30.02 1017 10 16 0.00 0.00
1:53 am 01:53 Clear 78 25.6 74 23.3 87 87 Calm 30.02 1017 10 16 0.00 0.00
2:53 am 02:53 Clear 78 25.6 74 23.3 87 87 SSE 5 7 30.03 1017 10 16 0.00 0.00
3:53 am 03:53 Partly Cloudy 78 25.6 75 23.9 90 90 SE 6 9 30.04 1017 10 16 0.00 0.00
4:14 am 04:14 Mostly Cloudy 78 25.6 75 23.9 90 90 SSE 6 9 30.04 1017 10 16 0.00 0.00
4:22 am 04:22 Mostly Clear 78 25.6 75 23.9 90 90 SE 5 7 30.04 1017 10 16 0.00 0.00
4:53 am 04:53 Mostly Clear 78 25.6 75 23.9 90 90 ESE 6 9 30.05 1018 10 16 0.00 0.00
5:26 am 05:26 Mostly Cloudy 78 25.6 75 23.9 90 90 ESE 5 7 30.06 1018 10 16 0.00 0.00
5:42 am 05:42 Partly Cloudy 78 25.6 75 23.9 90 90 ESE 5 7 30.06 1018 10 16 0.00 0.00
5:53 am 05:53 Mostly Clear 78 25.6 75 23.9 90 90 ESE 3 6 30.07 1018 10 16 0.00 0.00
6:53 am 06:53 Sunny 77 25 75 23.9 94 94 SSE 6 9 30.07 1018 8 13 0.00 0.00
7:35 am 07:35 Mostly Sunny 79 26.1 75 23.9 88 88 SSE 7 11 30.08 1018 10 16 0.00 0.00
7:53 am 07:53 Mostly Sunny 79 26.1 76 24.4 90 90 SE 7 11 30.09 1019 10 16 0.00 0.00
8:27 am 08:27 Mostly Cloudy 81 27.2 76 24.4 85 85 S 7 11 30.09 1019 10 16 0.00 0.00
8:53 am 08:53 Mostly Cloudy 82 27.8 75 23.9 79 79 SSE 6 9 30.09 1019 10 16 0.00 0.00
9:01 am 09:01 Partly Cloudy 82 27.8 75 23.9 79 79 SSE 6 9 30.08 1018 10 16 0.00 0.00
9:53 am 09:53 Sunny 86 30 75 23.9 70 70 S 5 7 30.08 1019 10 16 0.00 0.00
10:53 am 10:53 Mostly Sunny 89 31.7 76 24.4 65 65 WSW 7 11 30.06 1018 10 16 0.00 0.00
11:53 am 11:53 Sunny with Nearby Thunderstorms 91 32.8 75 23.9 59 59 SW 7 11 30.04 1017 10 16 0.00 0.00
12:22 pm 12:22 Mostly Cloudy with Thunderstorms 88 31.1 72 22.2 59 59 WNW 12 19 30.02 1017 10 16 0.00 0.00
12:31 pm 12:31 Mostly Cloudy 88 31.1 71 21.7 57 57 NNW 15 24 30.01 1016 10 16 0.00 0.00
12:38 pm 12:38 Mostly Cloudy with Nearby Thunderstorms 88 31.1 71 21.7 57 57 NNW 10 17 30.01 1016 10 16 0.00 0.00
12:50 pm 12:50 Mostly Cloudy with Thunderstorms 88 31 72 22 59 59 Calm 30.02 1017 10 16 0.00 0.00
12:53 pm 12:53 Mostly Cloudy with Thunderstorms 87 30.6 71 21.7 59 59 Calm 30.03 1017 10 16 0.00 0.00
1:27 pm 13:27 Partly Cloudy with Nearby Thunderstorms 83 28.3 71 21.7 67 67 SSW 8 13 30.03 1017 10 16 0.00 0.00
1:53 pm 13:53 Sunny with Nearby Thunderstorms 82 27.8 72 22.2 72 72 S 5 7 30.03 1017 10 16 0.00 0.00
2:43 pm 14:43 Cloudy with Rain 78 25.6 73 22.8 85 85 W 13 20 30.06 1018 3 5 0.03 0.76
2:46 pm 14:46 Cloudy with Heavy Rain 77 25 73 22.8 88 88 W 10 17 30.06 1018 2 3 0.06 1.52
2:53 pm 14:53 Cloudy with Heavy Rain 77 25 73 22.8 88 88 W 6 9 30.07 1018 1 1 0.14 3.56
3:01 pm 15:01 Cloudy with Light Rain 77 25 73 22.8 88 88 VRB 3 6 30.05 1017 3 4 0.01 0.25
3:08 pm 15:08 Cloudy with Light Rain 77 25 73 22.8 88 88 S 3 6 30.05 1017 4 6 0.02 0.51
3:53 pm 15:53 Mostly Sunny 78 25.6 74 23.3 87 87 SSE 9 15 30.03 1017 10 16 0.04 1.02
4:53 pm 16:53 Partly Cloudy with Light Rain 78 25.6 74 23.3 87 87 SSE 8 13 30.02 1017 10 16 0.00 0.00
5:53 pm 17:53 Sunny 79 26.1 75 23.9 88 88 SE 6 9 30.01 1016 10 16 0.00 0.00
6:46 pm 18:46 Mostly Sunny 79 26.1 75 23.9 88 88 SE 8 13 29.98 1015 10 16 0.00 0.00
6:53 pm 18:53 Mostly Sunny 79 26.1 75 23.9 88 88 SE 8 13 29.99 1016 10 16 0.00 0.00
7:01 pm 19:01 Cloudy 79 26.1 75 23.9 88 88 ESE 8 13 29.98 1015 10 16 0.00 0.00
7:53 pm 19:53 Cloudy 79 26.1 76 24.4 90 90 S 9 15 29.99 1016 10 16 0.00 0.00
8:00 pm 20:00 Sunny 79 26.1 76 24.4 90 90 SSE 9 15 29.98 1015 10 16 0.00 0.00
8:53 pm 20:53 Clear 79 26.1 75 23.9 88 88 SSE 8 13 29.98 1015 10 16 0.00 0.00
9:53 pm 21:53 Clear 78 25.6 74 23.3 87 87 SE 8 13 29.98 1015 10 16 0.00 0.00
10:53 pm 22:53 Clear 77 25 74 23.3 90 90 S 5 7 29.97 1015 10 16 0.00 0.00
11:53 pm 23:53 Clear 77 25 74 23.3 90 90 S 3 6 29.97 1015 10 16 0.00 0.00

Powered by AerisWeather